contact:dominique.lefevre@mio.osupytheas.fr, maurice.libes@osupytheas.fr, didier.mallarino@osupytheas.fr
Project:EMSO http://www.emso-fr.org/EMSO-France
Depth: 2436.0 m
Title:EMSO Ligure Ouest : Data MII capteur MICROCAT
DateTime_Computer,Latitude,Longitude,Temperature,Conductivity,Pressure,DateTime_Instrument
DateTime_Computer,Latitude,Longitude,degC,S m-1,dbar,DateTime_Instrument
2020-10-19T00:01:31Z,42.805,6.029,13.2980,4.59986,2470.194,2020-10-19T02:02:25Z
2020-10-19T00:04:34Z,42.805,6.029,13.2980,4.59991,2470.171,2020-10-19T02:05:29Z
2020-10-19T00:07:37Z,42.805,6.029,13.2982,4.59994,2470.18,2020-10-19T02:08:32Z
2020-10-19T00:10:40Z,42.805,6.029,13.2982,4.59987,2470.18,2020-10-19T02:11:35Z
2020-10-19T00:13:44Z,42.805,6.029,13.2976,4.59983,2470.133,2020-10-19T02:14:38Z
2020-10-19T00:16:47Z,42.805,6.029,13.2982,4.59984,2470.156,2020-10-19T02:17:41Z
2020-10-19T00:19:50Z,42.805,6.029,13.2981,4.59986,2470.18,2020-10-19T02:20:44Z
2020-10-19T00:22:53Z,42.805,6.029,13.2980,4.59985,2470.133,2020-10-19T02:23:47Z
2020-10-19T00:25:56Z,42.805,6.029,13.2978,4.59987,2470.156,2020-10-19T02:26:50Z
2020-10-19T00:28:59Z,42.805,6.029,13.2979,4.59986,2470.147,2020-10-19T02:29:53Z
2020-10-19T00:32:02Z,42.805,6.029,13.2979,4.59991,2470.171,2020-10-19T02:32:57Z
2020-10-19T00:35:05Z,42.805,6.029,13.2977,4.59994,2470.147,2020-10-19T02:36:00Z
2020-10-19T00:38:08Z,42.805,6.029,13.2974,4.59983,2470.156,2020-10-19T02:39:03Z
2020-10-19T00:41:12Z,42.805,6.029,13.2976,4.59992,2470.133,2020-10-19T02:42:06Z
2020-10-19T00:44:15Z,42.805,6.029,13.2978,4.59985,2470.133,2020-10-19T02:45:09Z
2020-10-19T00:47:18Z,42.805,6.029,13.2978,4.59986,2470.156,2020-10-19T02:48:12Z
2020-10-19T00:50:21Z,42.805,6.029,13.2980,4.59983,2470.147,2020-10-19T02:51:15Z
2020-10-19T00:53:24Z,42.805,6.029,13.2979,4.59994,2470.18,2020-10-19T02:54:18Z
2020-10-19T00:56:27Z,42.805,6.029,13.2979,4.59988,2470.156,2020-10-19T02:57:22Z
2020-10-19T00:59:30Z,42.805,6.029,13.2981,4.59987,2470.133,2020-10-19T03:00:25Z
2020-10-19T01:02:33Z,42.805,6.029,13.2976,4.59984,2470.124,2020-10-19T03:03:28Z
2020-10-19T01:05:37Z,42.805,6.029,13.2981,4.59984,2470.11,2020-10-19T03:06:31Z
2020-10-19T01:08:40Z,42.805,6.029,13.2978,4.59986,2470.11,2020-10-19T03:09:34Z
2020-10-19T01:11:43Z,42.805,6.029,13.2975,4.59986,2470.11,2020-10-19T03:12:37Z
2020-10-19T01:14:46Z,42.805,6.029,13.2986,4.59987,2470.147,2020-10-19T03:15:40Z
2020-10-19T01:17:49Z,42.805,6.029,13.2979,4.59991,2470.147,2020-10-19T03:18:43Z
2020-10-19T01:20:52Z,42.805,6.029,13.2979,4.59989,2470.124,2020-10-19T03:21:47Z
2020-10-19T01:23:55Z,42.805,6.029,13.2978,4.59986,2470.1,2020-10-19T03:24:50Z
2020-10-19T01:26:58Z,42.805,6.029,13.2976,4.59981,2470.087,2020-10-19T03:27:53Z
2020-10-19T01:30:02Z,42.805,6.029,13.2981,4.59991,2470.11,2020-10-19T03:30:56Z
2020-10-19T01:33:05Z,42.805,6.029,13.2977,4.59987,2470.11,2020-10-19T03:33:59Z
2020-10-19T01:36:08Z,42.805,6.029,13.2979,4.59991,2470.11,2020-10-19T03:37:02Z
2020-10-19T01:39:11Z,42.805,6.029,13.2980,4.59991,2470.087,2020-10-19T03:40:05Z
2020-10-19T01:42:14Z,42.805,6.029,13.2978,4.59984,2470.087,2020-10-19T03:43:08Z
2020-10-19T01:45:17Z,42.805,6.029,13.2982,4.59989,2470.1,2020-10-19T03:46:12Z
2020-10-19T01:48:20Z,42.805,6.029,13.2978,4.59996,2470.087,2020-10-19T03:49:15Z
2020-10-19T01:51:23Z,42.805,6.029,13.2982,4.59992,2470.087,2020-10-19T03:52:18Z
2020-10-19T01:54:27Z,42.805,6.029,13.2972,4.59992,2470.087,2020-10-19T03:55:21Z
2020-10-19T01:57:30Z,42.805,6.029,13.2978,4.59984,2470.087,2020-10-19T03:58:24Z
2020-10-19T02:00:33Z,42.805,6.029,13.2982,4.59985,2470.063,2020-10-19T04:01:27Z
2020-10-19T02:03:36Z,42.805,6.029,13.2982,4.59986,2470.087,2020-10-19T04:04:30Z
2020-10-19T02:06:39Z,42.805,6.029,13.2976,4.59986,2470.1,2020-10-19T04:07:33Z
2020-10-19T02:09:42Z,42.805,6.029,13.2975,4.59985,2470.124,2020-10-19T04:10:37Z
2020-10-19T02:12:45Z,42.805,6.029,13.2983,4.59984,2470.087,2020-10-19T04:13:40Z
2020-10-19T02:15:48Z,42.805,6.029,13.2979,4.59988,2470.11,2020-10-19T04:16:43Z
2020-10-19T02:18:52Z,42.805,6.029,13.2983,4.59996,2470.063,2020-10-19T04:19:46Z
2020-10-19T02:21:55Z,42.805,6.029,13.2981,4.59990,2470.063,2020-10-19T04:22:49Z
2020-10-19T02:24:58Z,42.805,6.029,13.2988,4.59986,2470.11,2020-10-19T04:25:52Z
2020-10-19T02:28:01Z,42.805,6.029,13.2986,4.59999,2470.1,2020-10-19T04:28:55Z
2020-10-19T02:31:04Z,42.805,6.029,13.2984,4.59991,2470.077,2020-10-19T04:31:58Z
2020-10-19T02:34:07Z,42.805,6.029,13.2977,4.59992,2470.049,2020-10-19T04:35:02Z
2020-10-19T02:37:10Z,42.805,6.029,13.2979,4.59986,2470.077,2020-10-19T04:38:05Z
2020-10-19T02:40:13Z,42.805,6.029,13.2976,4.59991,2470.077,2020-10-19T04:41:08Z
2020-10-19T02:43:17Z,42.805,6.029,13.2980,4.59997,2470.077,2020-10-19T04:44:11Z
2020-10-19T02:46:20Z,42.805,6.029,13.2976,4.59986,2470.1,2020-10-19T04:47:14Z
2020-10-19T02:49:23Z,42.805,6.029,13.2981,4.59990,2470.063,2020-10-19T04:50:17Z
2020-10-19T02:52:26Z,42.805,6.029,13.2981,4.59996,2470.04,2020-10-19T04:53:20Z
2020-10-19T02:55:29Z,42.805,6.029,13.2983,4.60005,2470.087,2020-10-19T04:56:23Z
2020-10-19T02:58:32Z,42.805,6.029,13.2983,4.59992,2470.1,2020-10-19T04:59:26Z
2020-10-19T03:01:35Z,42.805,6.029,13.2977,4.59987,2470.073,2020-10-19T05:02:30Z
2020-10-19T03:04:38Z,42.805,6.029,13.2980,4.59985,2470.087,2020-10-19T05:05:33Z
2020-10-19T03:07:41Z,42.805,6.029,13.2983,4.60009,2470.063,2020-10-19T05:08:36Z
2020-10-19T03:10:45Z,42.805,6.029,13.2979,4.59988,2470.1,2020-10-19T05:11:39Z
2020-10-19T03:13:48Z,42.805,6.029,13.2984,4.59998,2470.04,2020-10-19T05:14:42Z
2020-10-19T03:16:51Z,42.805,6.029,13.2978,4.59985,2470.087,2020-10-19T05:17:45Z
2020-10-19T03:19:54Z,42.805,6.029,13.2982,4.59986,2470.1,2020-10-19T05:20:48Z
2020-10-19T03:22:57Z,42.805,6.029,13.2981,4.59991,2470.063,2020-10-19T05:23:51Z
2020-10-19T03:26:00Z,42.805,6.029,13.2983,4.59988,2470.063,2020-10-19T05:26:55Z
2020-10-19T03:29:03Z,42.805,6.029,13.2980,4.59994,2470.087,2020-10-19T05:29:58Z
2020-10-19T03:32:06Z,42.805,6.029,13.2979,4.59990,2470.04,2020-10-19T05:33:01Z
2020-10-19T03:35:10Z,42.805,6.029,13.2984,4.60001,2470.04,2020-10-19T05:36:04Z
2020-10-19T03:38:13Z,42.805,6.029,13.2977,4.59989,2470.11,2020-10-19T05:39:07Z
2020-10-19T03:41:16Z,42.805,6.029,13.2989,4.60001,2470.087,2020-10-19T05:42:10Z
2020-10-19T03:44:19Z,42.805,6.029,13.2979,4.59986,2470.063,2020-10-19T05:45:13Z
2020-10-19T03:47:22Z,42.805,6.029,13.2974,4.59988,2470.087,2020-10-19T05:48:16Z
2020-10-19T03:50:25Z,42.805,6.029,13.2979,4.59984,2470.087,2020-10-19T05:51:20Z
2020-10-19T03:53:28Z,42.805,6.029,13.2986,4.59990,2470.063,2020-10-19T05:54:23Z
2020-10-19T03:56:31Z,42.805,6.029,13.2979,4.59989,2470.063,2020-10-19T05:57:26Z
2020-10-19T03:59:35Z,42.805,6.029,13.2979,4.59990,2470.063,2020-10-19T06:00:29Z
2020-10-19T04:02:38Z,42.805,6.029,13.2976,4.59995,2470.087,2020-10-19T06:03:32Z
2020-10-19T04:05:41Z,42.805,6.029,13.2981,4.60000,2470.063,2020-10-19T06:06:35Z
2020-10-19T04:08:44Z,42.805,6.029,13.2982,4.60011,2470.1,2020-10-19T06:09:38Z
2020-10-19T04:11:47Z,42.805,6.029,13.2989,4.60010,2470.077,2020-10-19T06:12:41Z
2020-10-19T04:14:50Z,42.805,6.029,13.2977,4.59988,2470.073,2020-10-19T06:15:45Z
2020-10-19T04:17:53Z,42.805,6.029,13.2978,4.59991,2470.11,2020-10-19T06:18:48Z
2020-10-19T04:20:56Z,42.805,6.029,13.2978,4.59986,2470.087,2020-10-19T06:21:51Z
2020-10-19T04:24:00Z,42.805,6.029,13.2979,4.59994,2470.087,2020-10-19T06:24:54Z
2020-10-19T04:27:03Z,42.805,6.029,13.2982,4.59999,2470.1,2020-10-19T06:27:57Z
2020-10-19T04:30:06Z,42.805,6.029,13.2986,4.60005,2470.124,2020-10-19T06:31:00Z
2020-10-19T04:33:09Z,42.805,6.029,13.2983,4.59997,2470.11,2020-10-19T06:34:03Z
2020-10-19T04:36:12Z,42.805,6.029,13.2985,4.60003,2470.11,2020-10-19T06:37:06Z
2020-10-19T04:39:15Z,42.805,6.029,13.2979,4.59992,2470.11,2020-10-19T06:40:09Z
2020-10-19T04:42:18Z,42.805,6.029,13.2975,4.59988,2470.11,2020-10-19T06:43:13Z
2020-10-19T04:45:21Z,42.805,6.029,13.2979,4.59990,2470.11,2020-10-19T06:46:16Z
2020-10-19T04:48:24Z,42.805,6.029,13.2983,4.60002,2470.11,2020-10-19T06:49:19Z
2020-10-19T04:51:28Z,42.805,6.029,13.2985,4.60001,2470.124,2020-10-19T06:52:22Z
2020-10-19T04:54:31Z,42.805,6.029,13.2977,4.59994,2470.124,2020-10-19T06:55:25Z
2020-10-19T04:57:34Z,42.805,6.029,13.2992,4.60005,2470.156,2020-10-19T06:58:28Z
2020-10-19T05:00:37Z,42.805,6.029,13.2985,4.59994,2470.156,2020-10-19T07:01:31Z
2020-10-19T05:03:40Z,42.805,6.029,13.2983,4.60006,2470.133,2020-10-19T07:04:34Z
2020-10-19T05:06:43Z,42.805,6.029,13.2983,4.60011,2470.11,2020-10-19T07:07:38Z
2020-10-19T05:09:46Z,42.805,6.029,13.2979,4.60005,2470.133,2020-10-19T07:10:41Z
2020-10-19T05:12:49Z,42.805,6.029,13.2980,4.59996,2470.156,2020-10-19T07:13:44Z
2020-10-19T05:15:53Z,42.805,6.029,13.2980,4.59997,2470.171,2020-10-19T07:16:47Z
2020-10-19T05:18:56Z,42.805,6.029,13.2986,4.59995,2470.156,2020-10-19T07:19:50Z
2020-10-19T05:21:59Z,42.805,6.029,13.2980,4.60011,2470.133,2020-10-19T07:22:53Z
2020-10-19T05:25:02Z,42.805,6.029,13.2976,4.59993,2470.171,2020-10-19T07:25:56Z
2020-10-19T05:28:05Z,42.805,6.029,13.2977,4.60011,2470.156,2020-10-19T07:28:59Z
2020-10-19T05:31:08Z,42.805,6.029,13.2996,4.60003,2470.194,2020-10-19T07:32:03Z
2020-10-19T05:34:11Z,42.805,6.029,13.2991,4.60006,2470.171,2020-10-19T07:35:06Z
2020-10-19T05:37:14Z,42.805,6.029,13.2978,4.60003,2470.171,2020-10-19T07:38:09Z
2020-10-19T05:40:18Z,42.805,6.029,13.2982,4.60015,2470.18,2020-10-19T07:41:12Z
2020-10-19T05:43:21Z,42.805,6.029,13.2975,4.59999,2470.18,2020-10-19T07:44:15Z
2020-10-19T05:46:24Z,42.805,6.029,13.2986,4.60006,2470.203,2020-10-19T07:47:18Z
2020-10-19T05:49:27Z,42.805,6.029,13.2990,4.60015,2470.203,2020-10-19T07:50:21Z
2020-10-19T05:52:30Z,42.805,6.029,13.2984,4.59993,2470.227,2020-10-19T07:53:24Z
2020-10-19T05:55:33Z,42.805,6.029,13.2981,4.59991,2470.227,2020-10-19T07:56:28Z
2020-10-19T05:58:36Z,42.805,6.029,13.2976,4.59990,2470.24,2020-10-19T07:59:31Z
2020-10-19T06:01:39Z,42.805,6.029,13.2979,4.59993,2470.227,2020-10-19T08:02:34Z
2020-10-19T06:04:43Z,42.805,6.029,13.2980,4.59991,2470.227,2020-10-19T08:05:37Z
2020-10-19T06:07:46Z,42.805,6.029,13.2986,4.60014,2470.24,2020-10-19T08:08:40Z
2020-10-19T06:10:49Z,42.805,6.029,13.2983,4.60003,2470.26,2020-10-19T08:11:43Z
2020-10-19T06:13:52Z,42.805,6.029,13.2982,4.60004,2470.227,2020-10-19T08:14:46Z
2020-10-19T06:16:55Z,42.805,6.029,13.2977,4.59993,2470.273,2020-10-19T08:17:49Z
2020-10-19T06:19:58Z,42.805,6.029,13.2987,4.59999,2470.264,2020-10-19T08:20:53Z
2020-10-19T06:23:01Z,42.805,6.029,13.2982,4.60007,2470.264,2020-10-19T08:23:56Z
2020-10-19T06:26:04Z,42.805,6.029,13.2982,4.60006,2470.273,2020-10-19T08:26:59Z
2020-10-19T06:29:08Z,42.805,6.029,13.2985,4.60001,2470.24,2020-10-19T08:30:02Z
2020-10-19T06:32:11Z,42.805,6.029,13.2979,4.59995,2470.297,2020-10-19T08:33:05Z
2020-10-19T06:35:14Z,42.805,6.029,13.2982,4.59999,2470.273,2020-10-19T08:36:08Z
2020-10-19T06:38:17Z,42.805,6.029,13.2985,4.59989,2470.297,2020-10-19T08:39:11Z
2020-10-19T06:41:20Z,42.805,6.029,13.2984,4.60006,2470.26,2020-10-19T08:42:14Z
2020-10-19T06:44:23Z,42.805,6.029,13.2985,4.60003,2470.297,2020-10-19T08:45:17Z
2020-10-19T06:47:26Z,42.805,6.029,13.2982,4.59999,2470.273,2020-10-19T08:48:21Z
2020-10-19T06:50:29Z,42.805,6.029,13.2997,4.60003,2470.287,2020-10-19T08:51:24Z
2020-10-19T06:53:32Z,42.805,6.029,13.2990,4.60031,2470.297,2020-10-19T08:54:27Z
2020-10-19T06:56:36Z,42.805,6.029,13.2999,4.60010,2470.273,2020-10-19T08:57:30Z
2020-10-19T06:59:39Z,42.805,6.029,13.2983,4.60010,2470.31,2020-10-19T09:00:33Z
2020-10-19T07:02:42Z,42.805,6.029,13.2990,4.60015,2470.32,2020-10-19T09:03:36Z
2020-10-19T07:05:45Z,42.805,6.029,13.2980,4.60013,2470.297,2020-10-19T09:06:39Z
2020-10-19T07:08:48Z,42.805,6.029,13.2983,4.60026,2470.297,2020-10-19T09:09:42Z
2020-10-19T07:11:51Z,42.805,6.029,13.2986,4.60019,2470.297,2020-10-19T09:12:46Z
2020-10-19T07:14:54Z,42.805,6.029,13.2982,4.60001,2470.32,2020-10-19T09:15:49Z
2020-10-19T07:17:57Z,42.805,6.029,13.2992,4.60027,2470.32,2020-10-19T09:18:52Z
2020-10-19T07:21:01Z,42.805,6.029,13.2980,4.60008,2470.32,2020-10-19T09:21:55Z
2020-10-19T07:24:04Z,42.805,6.029,13.2990,4.60020,2470.32,2020-10-19T09:24:58Z
2020-10-19T07:27:07Z,42.805,6.029,13.2990,4.60016,2470.32,2020-10-19T09:28:01Z
2020-10-19T07:30:10Z,42.805,6.029,13.2981,4.59999,2470.366,2020-10-19T09:31:04Z
2020-10-19T07:33:13Z,42.805,6.029,13.2997,4.60010,2470.334,2020-10-19T09:34:07Z
2020-10-19T07:36:16Z,42.805,6.029,13.2983,4.60016,2470.343,2020-10-19T09:37:11Z
2020-10-19T07:39:19Z,42.805,6.029,13.2985,4.60014,2470.343,2020-10-19T09:40:14Z
2020-10-19T07:42:22Z,42.805,6.029,13.2992,4.60014,2470.357,2020-10-19T09:43:17Z
2020-10-19T07:45:26Z,42.805,6.029,13.2990,4.60032,2470.334,2020-10-19T09:46:20Z
2020-10-19T07:48:29Z,42.805,6.029,13.2991,4.60014,2470.343,2020-10-19T09:49:23Z
2020-10-19T07:51:32Z,42.805,6.029,13.2990,4.60026,2470.343,2020-10-19T09:52:26Z
2020-10-19T07:54:35Z,42.805,6.029,13.2996,4.60024,2470.39,2020-10-19T09:55:29Z
2020-10-19T07:57:38Z,42.805,6.029,13.2985,4.60012,2470.38,2020-10-19T09:58:32Z
2020-10-19T08:00:41Z,42.805,6.029,13.2979,4.60020,2470.357,2020-10-19T10:01:36Z
2020-10-19T08:03:44Z,42.805,6.029,13.2978,4.60003,2470.357,2020-10-19T10:04:39Z
2020-10-19T08:06:47Z,42.805,6.029,13.2985,4.60002,2470.357,2020-10-19T10:07:42Z
2020-10-19T08:09:51Z,42.805,6.029,13.2987,4.60002,2470.343,2020-10-19T10:10:45Z
2020-10-19T08:12:54Z,42.805,6.029,13.2990,4.60004,2470.343,2020-10-19T10:13:48Z
2020-10-19T08:15:57Z,42.805,6.029,13.2988,4.60020,2470.343,2020-10-19T10:16:51Z
2020-10-19T08:19:00Z,42.805,6.029,13.2979,4.60011,2470.366,2020-10-19T10:19:54Z
2020-10-19T08:22:03Z,42.805,6.029,13.3001,4.60024,2470.38,2020-10-19T10:22:57Z
2020-10-19T08:25:06Z,42.805,6.029,13.2982,4.60000,2470.404,2020-10-19T10:26:01Z
2020-10-19T08:28:09Z,42.805,6.029,13.3001,4.60014,2470.357,2020-10-19T10:29:04Z
2020-10-19T08:31:12Z,42.805,6.029,13.2983,4.60016,2470.38,2020-10-19T10:32:07Z
2020-10-19T08:34:16Z,42.805,6.029,13.2983,4.60011,2470.343,2020-10-19T10:35:10Z
2020-10-19T08:37:19Z,42.805,6.029,13.2981,4.59995,2470.334,2020-10-19T10:38:13Z
2020-10-19T08:40:22Z,42.805,6.029,13.2982,4.60026,2470.38,2020-10-19T10:41:16Z
2020-10-19T08:43:25Z,42.805,6.029,13.2982,4.60012,2470.366,2020-10-19T10:44:19Z
2020-10-19T08:46:28Z,42.805,6.029,13.2983,4.60005,2470.38,2020-10-19T10:47:22Z
2020-10-19T08:49:31Z,42.805,6.029,13.2982,4.60009,2470.404,2020-10-19T10:50:26Z
2020-10-19T08:52:34Z,42.805,6.029,13.2978,4.60004,2470.357,2020-10-19T10:53:29Z
2020-10-19T08:55:37Z,42.805,6.029,13.2983,4.60003,2470.33,2020-10-19T10:56:32Z
2020-10-19T08:58:41Z,42.805,6.029,13.2979,4.60021,2470.38,2020-10-19T10:59:35Z
2020-10-19T09:01:44Z,42.805,6.029,13.2983,4.59997,2470.353,2020-10-19T11:02:38Z
2020-10-19T09:04:47Z,42.805,6.029,13.2999,4.60030,2470.357,2020-10-19T11:05:41Z
2020-10-19T09:07:50Z,42.805,6.029,13.2998,4.60033,2470.38,2020-10-19T11:08:44Z
2020-10-19T09:10:53Z,42.805,6.029,13.2992,4.60040,2470.357,2020-10-19T11:11:47Z
2020-10-19T09:13:56Z,42.805,6.029,13.2981,4.60032,2470.357,2020-10-19T11:14:51Z
2020-10-19T09:16:59Z,42.805,6.029,13.2991,4.60038,2470.357,2020-10-19T11:17:54Z
2020-10-19T09:20:02Z,42.805,6.029,13.2988,4.60033,2470.343,2020-10-19T11:20:57Z
2020-10-19T09:23:06Z,42.805,6.029,13.2996,4.60029,2470.404,2020-10-19T11:24:00Z
2020-10-19T09:26:09Z,42.805,6.029,13.2983,4.60024,2470.366,2020-10-19T11:27:03Z
2020-10-19T09:29:12Z,42.805,6.029,13.2996,4.60013,2470.357,2020-10-19T11:30:06Z
2020-10-19T09:32:15Z,42.805,6.029,13.2990,4.60037,2470.404,2020-10-19T11:33:09Z
2020-10-19T09:35:18Z,42.805,6.029,13.2988,4.60036,2470.366,2020-10-19T11:36:12Z
2020-10-19T09:38:21Z,42.805,6.029,13.2983,4.60019,2470.343,2020-10-19T11:39:16Z
2020-10-19T09:41:24Z,42.805,6.029,13.2983,4.60011,2470.32,2020-10-19T11:42:19Z
2020-10-19T09:44:27Z,42.805,6.029,13.2982,4.60023,2470.334,2020-10-19T11:45:22Z
2020-10-19T09:47:31Z,42.805,6.029,13.2986,4.60026,2470.366,2020-10-19T11:48:25Z
2020-10-19T09:50:34Z,42.805,6.029,13.2986,4.60042,2470.343,2020-10-19T11:51:28Z
2020-10-19T09:53:37Z,42.805,6.029,13.2993,4.60009,2470.357,2020-10-19T11:54:31Z
2020-10-19T09:56:40Z,42.805,6.029,13.2998,4.60041,2470.343,2020-10-19T11:57:34Z
2020-10-19T09:59:43Z,42.805,6.029,13.2996,4.60021,2470.32,2020-10-19T12:00:37Z
2020-10-19T10:02:46Z,42.805,6.029,13.2989,4.60011,2470.343,2020-10-19T12:03:41Z
2020-10-19T10:05:49Z,42.805,6.029,13.2990,4.60016,2470.32,2020-10-19T12:06:44Z
2020-10-19T10:08:53Z,42.805,6.029,13.2986,4.60009,2470.334,2020-10-19T12:09:47Z
2020-10-19T10:11:56Z,42.805,6.029,13.2992,4.60021,2470.366,2020-10-19T12:12:50Z
2020-10-19T10:14:59Z,42.805,6.029,13.2988,4.60014,2470.343,2020-10-19T12:15:53Z
2020-10-19T10:18:02Z,42.805,6.029,13.2987,4.60007,2470.343,2020-10-19T12:18:56Z
2020-10-19T10:21:05Z,42.805,6.029,13.2988,4.60006,2470.343,2020-10-19T12:21:59Z
2020-10-19T10:24:08Z,42.805,6.029,13.2986,4.60010,2470.357,2020-10-19T12:25:02Z
2020-10-19T10:27:11Z,42.805,6.029,13.2996,4.60014,2470.343,2020-10-19T12:28:06Z
2020-10-19T10:30:14Z,42.805,6.029,13.2983,4.60010,2470.32,2020-10-19T12:31:09Z
2020-10-19T10:33:18Z,42.805,6.029,13.2989,4.60007,2470.357,2020-10-19T12:34:12Z
2020-10-19T10:36:21Z,42.805,6.029,13.2982,4.60019,2470.32,2020-10-19T12:37:15Z
2020-10-19T10:39:24Z,42.805,6.029,13.2984,4.60009,2470.334,2020-10-19T12:40:18Z
2020-10-19T10:42:27Z,42.805,6.029,13.2990,4.60019,2470.32,2020-10-19T12:43:21Z
2020-10-19T10:45:30Z,42.805,6.029,13.2983,4.60016,2470.334,2020-10-19T12:46:24Z
2020-10-19T10:48:33Z,42.805,6.029,13.2992,4.60015,2470.297,2020-10-19T12:49:28Z
2020-10-19T10:51:36Z,42.805,6.029,13.2990,4.60029,2470.334,2020-10-19T12:52:31Z
2020-10-19T10:54:39Z,42.805,6.029,13.2986,4.60016,2470.297,2020-10-19T12:55:34Z
2020-10-19T10:57:43Z,42.805,6.029,13.2990,4.60005,2470.31,2020-10-19T12:58:37Z
2020-10-19T11:00:46Z,42.805,6.029,13.2990,4.60009,2470.297,2020-10-19T13:01:40Z
2020-10-19T11:03:49Z,42.805,6.029,13.2982,4.60019,2470.334,2020-10-19T13:04:43Z
2020-10-19T11:06:52Z,42.805,6.029,13.2981,4.60017,2470.31,2020-10-19T13:07:46Z
2020-10-19T11:09:55Z,42.805,6.029,13.2990,4.60017,2470.287,2020-10-19T13:10:49Z
2020-10-19T11:12:58Z,42.805,6.029,13.2990,4.60026,2470.297,2020-10-19T13:13:53Z
2020-10-19T11:16:01Z,42.805,6.029,13.2993,4.60033,2470.297,2020-10-19T13:16:56Z
2020-10-19T11:19:04Z,42.805,6.029,13.2990,4.60011,2470.297,2020-10-19T13:19:59Z
2020-10-19T11:22:08Z,42.805,6.029,13.2994,4.60014,2470.297,2020-10-19T13:23:02Z
2020-10-19T11:25:11Z,42.805,6.029,13.2987,4.60019,2470.32,2020-10-19T13:26:05Z
2020-10-19T11:28:14Z,42.805,6.029,13.2983,4.60016,2470.31,2020-10-19T13:29:08Z
2020-10-19T11:31:17Z,42.805,6.029,13.2983,4.60017,2470.287,2020-10-19T13:32:11Z
2020-10-19T11:34:20Z,42.805,6.029,13.2984,4.60023,2470.273,2020-10-19T13:35:14Z
2020-10-19T11:37:23Z,42.805,6.029,13.2981,4.60011,2470.25,2020-10-19T13:38:18Z
2020-10-19T11:40:26Z,42.805,6.029,13.2986,4.60006,2470.264,2020-10-19T13:41:21Z
2020-10-19T11:43:29Z,42.805,6.029,13.2985,4.60003,2470.273,2020-10-19T13:44:24Z
2020-10-19T11:46:33Z,42.805,6.029,13.2982,4.60016,2470.273,2020-10-19T13:47:27Z
2020-10-19T11:49:36Z,42.805,6.029,13.2992,4.60013,2470.25,2020-10-19T13:50:30Z
2020-10-19T11:52:39Z,42.805,6.029,13.2985,4.60007,2470.25,2020-10-19T13:53:33Z
2020-10-19T11:55:42Z,42.805,6.029,13.2986,4.60011,2470.273,2020-10-19T13:56:36Z
2020-10-19T11:58:45Z,42.805,6.029,13.2986,4.60014,2470.26,2020-10-19T13:59:39Z
2020-10-19T12:01:48Z,42.805,6.029,13.2991,4.60016,2470.25,2020-10-19T14:02:43Z
2020-10-19T12:04:51Z,42.805,6.029,13.2984,4.60009,2470.26,2020-10-19T14:05:46Z
2020-10-19T12:07:54Z,42.805,6.029,13.2984,4.60013,2470.273,2020-10-19T14:08:49Z
2020-10-19T12:10:58Z,42.805,6.029,13.2989,4.60011,2470.273,2020-10-19T14:11:52Z
2020-10-19T12:14:01Z,42.805,6.029,13.2990,4.60015,2470.25,2020-10-19T14:14:55Z
2020-10-19T12:17:04Z,42.805,6.029,13.2986,4.60006,2470.273,2020-10-19T14:17:58Z
2020-10-19T12:20:07Z,42.805,6.029,13.2983,4.60016,2470.227,2020-10-19T14:21:01Z
2020-10-19T12:23:10Z,42.805,6.029,13.2993,4.60016,2470.273,2020-10-19T14:24:04Z
2020-10-19T12:26:13Z,42.805,6.029,13.2985,4.59996,2470.264,2020-10-19T14:27:08Z
2020-10-19T12:29:16Z,42.805,6.029,13.2981,4.60014,2470.227,2020-10-19T14:30:11Z
2020-10-19T12:32:19Z,42.805,6.029,13.2982,4.60007,2470.264,2020-10-19T14:33:14Z
2020-10-19T12:35:23Z,42.805,6.029,13.2980,4.60003,2470.227,2020-10-19T14:36:17Z
2020-10-19T12:38:26Z,42.805,6.029,13.2979,4.60007,2470.25,2020-10-19T14:39:20Z
2020-10-19T12:41:29Z,42.805,6.029,13.2991,4.60019,2470.227,2020-10-19T14:42:23Z
2020-10-19T12:44:32Z,42.805,6.029,13.2990,4.60026,2470.24,2020-10-19T14:45:26Z
2020-10-19T12:47:35Z,42.805,6.029,13.2988,4.60011,2470.24,2020-10-19T14:48:30Z
2020-10-19T12:50:38Z,42.805,6.029,13.2990,4.60009,2470.264,2020-10-19T14:51:33Z
2020-10-19T12:53:41Z,42.805,6.029,13.2985,4.60014,2470.24,2020-10-19T14:54:36Z
2020-10-19T12:56:45Z,42.805,6.029,13.2986,4.60009,2470.24,2020-10-19T14:57:39Z
2020-10-19T12:59:48Z,42.805,6.029,13.2989,4.60018,2470.203,2020-10-19T15:00:42Z
2020-10-19T13:02:51Z,42.805,6.029,13.2987,4.60010,2470.227,2020-10-19T15:03:45Z
2020-10-19T13:05:54Z,42.805,6.029,13.2982,4.60019,2470.24,2020-10-19T15:06:48Z
2020-10-19T13:08:57Z,42.805,6.029,13.2986,4.60013,2470.24,2020-10-19T15:09:51Z
2020-10-19T13:12:00Z,42.805,6.029,13.2987,4.60007,2470.217,2020-10-19T15:12:55Z
2020-10-19T13:15:03Z,42.805,6.029,13.2982,4.60018,2470.25,2020-10-19T15:15:58Z
2020-10-19T13:18:06Z,42.805,6.029,13.2990,4.60008,2470.217,2020-10-19T15:19:01Z
2020-10-19T13:21:09Z,42.805,6.029,13.2986,4.60013,2470.18,2020-10-19T15:22:04Z
2020-10-19T13:24:13Z,42.805,6.029,13.2981,4.59996,2470.24,2020-10-19T15:25:07Z
2020-10-19T13:27:16Z,42.805,6.029,13.2982,4.60009,2470.203,2020-10-19T15:28:10Z
2020-10-19T13:30:19Z,42.805,6.029,13.2982,4.60014,2470.203,2020-10-19T15:31:13Z
2020-10-19T13:33:22Z,42.805,6.029,13.2984,4.60016,2470.203,2020-10-19T15:34:16Z
2020-10-19T13:36:25Z,42.805,6.029,13.2983,4.60017,2470.203,2020-10-19T15:37:20Z
2020-10-19T13:39:28Z,42.805,6.029,13.2988,4.60014,2470.203,2020-10-19T15:40:23Z
2020-10-19T13:42:31Z,42.805,6.029,13.2983,4.60006,2470.217,2020-10-19T15:43:26Z
2020-10-19T13:45:35Z,42.805,6.029,13.2980,4.59993,2470.203,2020-10-19T15:46:29Z
2020-10-19T13:48:38Z,42.805,6.029,13.2985,4.60007,2470.18,2020-10-19T15:49:32Z
2020-10-19T13:51:41Z,42.805,6.029,13.2981,4.60006,2470.217,2020-10-19T15:52:35Z
2020-10-19T13:54:44Z,42.805,6.029,13.2985,4.60003,2470.194,2020-10-19T15:55:38Z
2020-10-19T13:57:47Z,42.805,6.029,13.2981,4.59999,2470.194,2020-10-19T15:58:41Z
2020-10-19T14:00:50Z,42.805,6.029,13.2986,4.60009,2470.203,2020-10-19T16:01:45Z
2020-10-19T14:03:53Z,42.805,6.029,13.2982,4.59999,2470.18,2020-10-19T16:04:48Z
2020-10-19T14:06:56Z,42.805,6.029,13.2984,4.60011,2470.203,2020-10-19T16:07:51Z
2020-10-19T14:10:00Z,42.805,6.029,13.2983,4.60008,2470.194,2020-10-19T16:10:54Z
2020-10-19T14:13:03Z,42.805,6.029,13.2984,4.60011,2470.156,2020-10-19T16:13:57Z
2020-10-19T14:16:06Z,42.805,6.029,13.2985,4.59998,2470.18,2020-10-19T16:17:00Z
2020-10-19T14:19:09Z,42.805,6.029,13.2983,4.59989,2470.194,2020-10-19T16:20:03Z
2020-10-19T14:22:12Z,42.805,6.029,13.2978,4.59999,2470.194,2020-10-19T16:23:06Z
2020-10-19T14:25:15Z,42.805,6.029,13.2982,4.60006,2470.18,2020-10-19T16:26:10Z
2020-10-19T14:28:18Z,42.805,6.029,13.2982,4.60009,2470.203,2020-10-19T16:29:13Z
2020-10-19T14:31:21Z,42.805,6.029,13.2991,4.60003,2470.156,2020-10-19T16:32:16Z
2020-10-19T14:34:25Z,42.805,6.029,13.2979,4.59996,2470.171,2020-10-19T16:35:19Z
2020-10-19T14:37:28Z,42.805,6.029,13.2978,4.60001,2470.171,2020-10-19T16:38:22Z
2020-10-19T14:40:31Z,42.805,6.029,13.2980,4.60001,2470.171,2020-10-19T16:41:25Z
2020-10-19T14:43:34Z,42.805,6.029,13.2978,4.60001,2470.194,2020-10-19T16:44:28Z
2020-10-19T14:46:37Z,42.805,6.029,13.2978,4.59999,2470.156,2020-10-19T16:47:32Z
2020-10-19T14:49:40Z,42.805,6.029,13.2982,4.60008,2470.171,2020-10-19T16:50:35Z
2020-10-19T14:52:43Z,42.805,6.029,13.2980,4.59998,2470.194,2020-10-19T16:53:38Z
2020-10-19T14:55:46Z,42.805,6.029,13.2981,4.59996,2470.171,2020-10-19T16:56:41Z
2020-10-19T14:58:50Z,42.805,6.029,13.2983,4.59993,2470.156,2020-10-19T16:59:44Z
2020-10-19T15:01:53Z,42.805,6.029,13.2980,4.59995,2470.171,2020-10-19T17:02:47Z